This demonstration page uses our WeatherBlox Daily Observations layout. Learn more.

Left ArrowRight Arrow

34.74481, -87.66753

Hourly Observations for January 30, 2020

Temp ( °F °C ) Dew Point ( °F °C ) Humidity (%) Winds ( mph kmh ) Pressure ( in mb ) Visibility ( mi km ) Precip ( " mm )
12:53 am 00:53 Clear 44 6.7 40 4.4 85 85 NNE 5 7 30.06 1018 10 16 0.00 0.00
1:53 am 01:53 Clear 44 6.7 40 4.4 85 85 NNE 6 9 30.06 1018 8 13 0.00 0.00
2:53 am 02:53 Clear 42 5.6 39 3.9 89 89 Calm 30.07 1018 7 11 0.00 0.00
3:53 am 03:53 Clear with Mist and Fog 42 5.6 39 3.9 89 89 Calm 30.08 1019 6 10 0.00 0.00
4:12 am 04:12 Mostly Clear with Mist and Fog 42 5.6 38 3.3 85 85 Calm 30.11 1020 5 8 0.00 0.00
4:53 am 04:53 Mostly Cloudy with Mist and Fog 41 5 38 3.3 89 89 N 3 6 30.10 1019 4 6 0.00 0.00
5:13 am 05:13 Cloudy with Mist and Fog 41 5 39 3.9 93 93 VRB 3 6 30.13 1020 3 4 0.00 0.00
5:23 am 05:23 Cloudy with Mist and Fog 41 5 39 3.9 93 93 NNE 6 9 30.13 1020 3 5 0.00 0.00
5:53 am 05:53 Cloudy with Mist and Fog 42 5.6 40 4.4 92 92 Calm 30.13 1020 4 6 0.00 0.00
6:53 am 06:53 Cloudy with Mist and Fog 43 6.1 40 4.4 89 89 NNW 3 6 30.15 1021 4 6 0.00 0.00
7:37 am 07:37 Cloudy with Mist and Fog 43 6.1 40 4.4 89 89 Calm 30.19 1022 3 5 0.00 0.00
7:53 am 07:53 Cloudy with Mist and Fog 44 6.7 40 4.4 85 85 Calm 30.16 1021 3 5 0.00 0.00
8:53 am 08:53 Cloudy with Mist and Fog 45 7.2 41 5 86 86 NE 3 6 30.17 1022 5 8 0.00 0.00
9:53 am 09:53 Cloudy with Haze 46 7.8 40 4.4 79 79 E 5 7 30.16 1022 6 10 0.00 0.00
10:38 am 10:38 Partly Cloudy 49 9.4 42 5.6 77 77 Calm 30.17 1022 7 11 0.00 0.00
10:53 am 10:53 Mostly Sunny 50 10 42 5.6 74 74 Calm 30.15 1021 8 13 0.00 0.00
11:53 am 11:53 Sunny 53 11.7 43 6.1 69 69 Calm 30.13 1020 10 16 0.00 0.00
12:53 pm 12:53 Sunny 56 13.3 43 6.1 62 62 VRB 5 7 30.10 1019 10 16 0.00 0.00
1:53 pm 13:53 Sunny 57 13.9 42 5.6 58 58 S 5 7 30.09 1019 10 16 0.00 0.00
2:53 pm 14:53 Sunny 59 15 41 5 51 51 Calm 30.08 1019 10 16 0.00 0.00
3:53 pm 15:53 Sunny 59 15 41 5 51 51 Calm 30.08 1019 10 16 0.00 0.00
4:53 pm 16:53 Sunny 57 13.9 39 3.9 51 51 NE 3 6 30.08 1019 10 16 0.00 0.00
5:53 pm 17:53 Clear 53 11.7 41 5 64 64 ENE 7 11 30.09 1019 10 16 0.00 0.00
6:53 pm 18:53 Clear 49 9.4 41 5 74 74 NE 5 7 30.10 1019 10 16 0.00 0.00
7:53 pm 19:53 Mostly Cloudy 48 8.9 41 5 77 77 Calm 30.11 1020 10 16 0.00 0.00
8:53 pm 20:53 Mostly Cloudy 48 8.9 41 5 77 77 Calm 30.12 1020 10 16 0.00 0.00
9:53 pm 21:53 Clear 46 7.8 40 4.4 79 79 Calm 30.12 1020 10 16 0.00 0.00
10:53 pm 22:53 Cloudy 45 7.2 42 5.6 90 90 Calm 30.12 1020 10 16 0.00 0.00
11:53 pm 23:53 Mostly Cloudy 45 7.2 41 5 86 86 Calm 30.10 1019 9 14 0.00 0.00

Powered by AerisWeather